| time (UTC) | temp F | wind direction | speed knots | gust knots | rain 1hr in | rain 24hr in | rain mn in | humidity % | barometer mb |
| 20260504182110 | 62 | 0.0 | 0.0 | 0.00 | 0.00 | 0.00 | 83 | 1010.5 | |
| 20260504181047 | 63 | 0.0 | 0.0 | 0.00 | 0.00 | 0.00 | 82 | 1010.5 | |
| 20260504180044 | 64 | 0.0 | 0.0 | 0.00 | 0.00 | 0.00 | 81 | 1010.5 | |
| 20260504175040 | 65 | 0.0 | 0.0 | 0.00 | 0.00 | 0.00 | 79 | 1010.3 | |
| 20260504174037 | 66 | 0.0 | 0.0 | 0.00 | 0.00 | 0.00 | 78 | 1010.5 | |
| 20260504173034 | 67 | 0.0 | 0.0 | 0.00 | 0.00 | 0.00 | 73 | 1010.4 | |
| 20260504172031 | 68 | 0.0 | 0.0 | 0.00 | 0.00 | 0.00 | 68 | 1010.4 | |
| 20260504171027 | 69 | 0.0 | 0.0 | 0.00 | 0.00 | 0.00 | 63 | 1010.5 | |
| 20260504160106 | 71 | 180 | 0.0 | 2.6 | 0.00 | 0.00 | 0.00 | 56 | 1010.4 |
| 20260504141030 | 75 | 258 | 0.9 | 3.5 | 0.00 | 0.00 | 0.00 | 50 | 1011.0 |
| 20260504130108 | 74 | 0.0 | 1.7 | 0.00 | 0.00 | 0.00 | 45 | 1011.5 | |
| 20260504100111 | 71 | 180 | 0.9 | 3.5 | 0.00 | 0.00 | 0.00 | 51 | 1012.9 |
| 20260504081036 | 65 | 191 | 2.6 | 7.0 | 0.00 | 0.00 | 0.00 | 59 | 1013.5 |
| 20260504070116 | 62 | 164 | 1.7 | 4.3 | 0.00 | 0.00 | 0.00 | 69 | 1013.5 |
| 20260504044030 | 52 | 0.0 | 0.0 | 0.00 | 0.00 | 0.00 | 94 | 1013.0 | |
| 20260504043027 | 51 | 0.0 | 0.0 | 0.00 | 0.00 | 0.00 | 95 | 1013.0 | |
| 20260504042024 | 51 | 0.0 | 0.0 | 0.00 | 0.00 | 0.00 | 95 | 1013.0 | |
| 20260504035115 | 49 | 0.0 | 0.0 | 0.00 | 0.00 | 0.00 | 97 | 1013.0 | |
| 20260504034112 | 50 | 0.0 | 0.0 | 0.00 | 0.00 | 0.00 | 96 | 1013.0 | |
| 20260504033109 | 51 | 0.0 | 0.0 | 0.00 | 0.00 | 0.00 | 95 | 1013.0 | |
| 20260504032106 | 51 | 0.0 | 0.0 | 0.00 | 0.00 | 0.00 | 94 | 1013.0 | |
| 20260504031103 | 52 | 0.0 | 0.0 | 0.00 | 0.00 | 0.00 | 94 | 1013.0 | |
| 20260504030139 | 52 | 0.0 | 0.0 | 0.00 | 0.00 | 0.00 | 95 | 1013.1 | |
| 20260504025056 | 52 | 0.0 | 0.0 | 0.00 | 0.00 | 0.00 | 94 | 1013.0 | |
| 20260504024053 | 52 | 0.0 | 0.0 | 0.00 | 0.00 | 0.00 | 94 | 1012.9 | |
| 20260504023050 | 52 | 0.0 | 0.0 | 0.00 | 0.00 | 0.00 | 94 | 1012.9 | |
| 20260504022047 | 52 | 0.0 | 0.0 | 0.00 | 0.00 | 0.00 | 94 | 1012.9 | |
| 20260504021043 | 52 | 0.0 | 0.0 | 0.00 | 0.00 | 0.00 | 94 | 1012.8 | |
| 20260504020040 | 52 | 0.0 | 0.0 | 0.00 | 0.00 | 0.00 | 93 | 1012.8 | |
| 20260504015057 | 52 | 0.0 | 0.0 | 0.00 | 0.00 | 0.00 | 93 | 1012.9 | |
| 20260504014034 | 52 | 0.0 | 0.0 | 0.00 | 0.00 | 0.00 | 92 | 1013.0 | |
| 20260504013031 | 52 | 0.0 | 0.0 | 0.00 | 0.00 | 0.00 | 91 | 1013.1 | |
| 20260504012028 | 51 | 0.0 | 0.0 | 0.00 | 0.00 | 0.00 | 92 | 1013.0 | |
| 20260504010022 | 51 | 0.0 | 0.0 | 0.00 | 0.00 | 0.00 | 91 | 1013.1 | |
| 20260504005018 | 50 | 0.0 | 0.0 | 0.00 | 0.00 | 0.00 | 91 | 1013.1 | |
| 20260504004015 | 50 | 0.0 | 0.0 | 0.00 | 0.00 | 0.00 | 92 | 1013.0 | |
| 20260504003113 | 51 | 0.0 | 0.0 | 0.00 | 0.00 | 0.00 | 91 | 1013.1 | |
| 20260504002109 | 52 | 0.0 | 0.0 | 0.00 | 0.00 | 0.00 | 89 | 1013.2 | |
| 20260503235100 | 56 | 0.0 | 0.0 | 0.00 | 0.00 | 0.00 | 83 | 1012.9 | |
| 20260503234056 | 59 | 0.0 | 0.0 | 0.00 | 0.00 | 0.00 | 79 | 1012.9 | |
| 20260503233134 | 61 | 0.0 | 0.0 | 0.00 | 0.00 | 0.00 | 71 | 1012.8 | |
| 20260503232050 | 62 | 0.0 | 0.0 | 0.00 | 0.00 | 0.00 | 68 | 1012.8 | |
| 20260503225041 | 62 | 248 | 0.9 | 4.3 | 0.00 | 0.00 | 0.00 | 67 | 1012.7 |
| 20260503224058 | 62 | 0.0 | 1.7 | 0.00 | 0.00 | 0.00 | 69 | 1012.3 | |
| 20260503221028 | 56 | 207 | 0.0 | 1.7 | 0.00 | 0.00 | 0.00 | 84 | 1012.6 |
| 20260503215042 | 54 | 0.0 | 0.0 | 0.00 | 0.00 | 0.00 | 93 | 1012.5 | |
| 20260503214039 | 54 | 0.0 | 0.0 | 0.00 | 0.00 | 0.00 | 95 | 1012.3 | |
| 20260503213035 | 53 | 0.0 | 0.0 | 0.00 | 0.00 | 0.00 | 95 | 1012.1 | |
| 20260503212112 | 53 | 0.0 | 0.0 | 0.00 | 0.00 | 0.00 | 93 | 1011.9 | |
| 20260503211109 | 53 | 0.0 | 0.0 | 0.00 | 0.00 | 0.00 | 93 | 1012.0 | |
| 20260503210106 | 53 | 0.0 | 0.0 | 0.00 | 0.00 | 0.00 | 93 | 1011.9 | |
| 20260503205103 | 53 | 0.0 | 0.0 | 0.00 | 0.00 | 0.00 | 93 | 1011.7 | |
| 20260503204059 | 54 | 0.0 | 0.0 | 0.00 | 0.00 | 0.00 | 92 | 1011.7 | |
| 20260503200043 | 55 | 0.0 | 0.0 | 0.00 | 0.00 | 0.00 | 90 | 1011.3 | |
| 20260503195040 | 55 | 0.0 | 0.0 | 0.00 | 0.00 | 0.00 | 89 | 1011.2 | |
| 20260503194035 | 56 | 0.0 | 0.0 | 0.00 | 0.00 | 0.00 | 88 | 1011.2 | |
| 20260503192028 | 57 | 0.0 | 0.0 | 0.00 | 0.00 | 0.00 | 88 | 1011.1 | |
| 20260503191024 | 57 | 0.0 | 0.0 | 0.00 | 0.00 | 0.00 | 85 | 1011.0 | |
| 20260503185018 | 59 | 0.0 | 0.0 | 0.00 | 0.00 | 0.00 | 82 | 1010.9 | |
| 20260503184015 | 60 | 0.0 | 0.0 | 0.00 | 0.00 | 0.00 | 81 | 1010.9 |